FW7362 Weather Reports


Display with metric or nautical units.
time (UTC)temp
F
wind
direction
speed
MPH
gust
MPH
rain 1hr
in
rain 24hr
in
rain mn
in
humidity
%
barometer
mb
20260509223917 66 241 6.0 10.0 0.00 0.40 0.40 63 1007.9
20260509223413 66 299 10.0 13.0 0.00 0.40 0.40 64 1007.9
20260509222911 66 278 6.0 11.0 0.00 0.40 0.40 63 1007.6
20260509222406 67 285 5.0 8.0 0.00 0.40 0.40 62 1007.2
20260509221901 66 251 4.0 11.0 0.00 0.40 0.40 61 1007.2
20260509221359 66 299 5.0 13.0 0.00 0.40 0.40 62 1007.4
20260509220855 66 276 4.0 9.0 0.00 0.40 0.40 63 1007.8
20260509220351 66 247 7.0 15.0 0.00 0.40 0.40 62 1007.4
20260509215846 66 285 5.0 13.0 0.00 0.40 0.40 61 1007.4
20260509215343 66 268 7.0 9.0 0.00 0.40 0.40 61 1007.6
20260509214840 66 252 9.0 11.0 0.00 0.40 0.40 61 1007.6
20260509214338 66 309 9.0 11.0 0.00 0.40 0.40 62 1007.5
20260509213835 66 233 6.0 11.0 0.00 0.40 0.40 65 1007.6
20260509213330 66 224 4.0 9.0 0.00 0.40 0.40 63 1007.8
20260509212828 66 329 3.0 8.0 0.00 0.40 0.40 64 1007.6
20260509212326 65 291 9.0 13.0 0.00 0.40 0.40 63 1008.0
20260509211821 66 250 7.0 13.0 0.00 0.40 0.40 63 1007.9
20260509211317 66 231 7.0 8.0 0.00 0.40 0.40 63 1007.9
20260509210814 66 299 6.0 13.0 0.00 0.40 0.40 63 1007.9
20260509210312 66 245 8.0 11.0 0.00 0.40 0.40 65 1007.9
20260509205811 66 310 6.0 10.0 0.00 0.40 0.40 65 1008.1
20260509205307 67 231 9.0 11.0 0.00 0.40 0.40 64 1008.1
20260509204802 67 282 8.0 13.0 0.00 0.40 0.40 66 1008.1
20260509204258 67 296 13.0 17.0 0.00 0.40 0.40 63 1008.1
20260509203754 66 257 9.0 18.0 0.00 0.40 0.40 64 1008.3
20260509203252 66 240 15.0 26.0 0.00 0.40 0.40 62 1008.5
20260509202748 66 274 9.0 15.0 0.00 0.40 0.40 65 1008.4
20260509202245 66 259 10.0 11.0 0.00 0.40 0.40 66 1008.6
20260509201744 66 229 7.0 13.0 0.00 0.40 0.40 65 1008.7
20260509201241 66 323 2.0 7.0 0.00 0.40 0.40 68 1008.6
20260509200737 66 284 8.0 13.0 0.00 0.40 0.40 67 1008.5
20260509200238 65 295 7.0 11.0 0.00 0.40 0.40 67 1008.8
20260509195734 65 265 6.0 13.0 0.00 0.40 0.40 67 1008.8
20260509195229 66 288 6.0 14.0 0.00 0.40 0.40 68 1009.0
20260509194724 65 289 7.0 14.0 0.00 0.40 0.40 69 1008.9
20260509194221 65 260 8.0 9.0 0.00 0.40 0.40 70 1009.0
20260509193718 65 241 8.0 11.0 0.00 0.40 0.40 68 1008.9
20260509193217 65 256 6.0 9.0 0.00 0.40 0.40 70 1008.9
20260509192714 64 248 7.0 15.0 0.00 0.40 0.40 75 1009.2
20260509192209 63 258 5.0 9.0 0.00 0.40 0.40 74 1009.0
20260509191705 63 315 6.0 15.0 0.00 0.40 0.40 73 1009.3
20260509191201 63 321 8.0 13.0 0.00 0.40 0.40 75 1009.4
20260509190658 62 280 7.0 13.0 0.00 0.40 0.40 76 1009.3
20260509190155 62 245 6.0 11.0 0.00 0.40 0.40 76 1009.3
20260509185653 62 197 8.0 14.0 0.00 0.40 0.40 78 1009.3
20260509185148 62 272 7.0 10.0 0.00 0.40 0.40 79 1009.3
20260509184646 61 271 5.0 13.0 0.00 0.40 0.40 80 1009.5
20260509184142 62 250 5.0 13.0 0.00 0.40 0.40 80 1009.6
20260509183639 63 317 4.0 8.0 0.00 0.40 0.40 79 1009.3
20260509183134 63 253 10.0 11.0 0.00 0.40 0.40 78 1009.3
20260509182630 64 229 8.0 9.0 0.00 0.40 0.40 79 1009.4
20260509182128 62 223 8.0 14.0 0.00 0.40 0.40 80 1009.4
20260509181626 62 280 5.0 8.0 0.00 0.40 0.40 83 1009.7
20260509181123 61 302 5.0 7.0 0.00 0.40 0.40 82 1009.4
20260509180619 62 323 3.0 10.0 0.00 0.40 0.40 82 1009.4
20260509180116 62 324 5.0 7.0 0.00 0.40 0.40 86 1009.3
20260509175611 61 261 3.0 9.0 0.00 0.40 0.40 86 1009.6
20260509175109 60 218 6.0 9.0 0.00 0.40 0.40 88 1009.5
20260509174605 59 293 6.0 10.0 0.00 0.40 0.40 89 1009.6
20260509174100 59 252 6.0 7.0 0.00 0.40 0.40 90 1009.7
20260509173555 58 269 6.0 14.0 0.00 0.40 0.40 91 1009.6
20260509173052 58 310 5.0 7.0 0.00 0.40 0.40 92 1010.0
20260509172549 57 232 4.0 6.0 0.00 0.40 0.40 93 1009.8
20260509172044 57 337 3.0 7.0 0.00 0.40 0.40 93 1009.8
20260509171540 57 254 6.0 7.0 0.00 0.40 0.40 94 1009.9
20260509171037 57 308 6.0 7.0 0.00 0.40 0.40 94 1010.0
20260509170533 57 267 3.0 6.0 0.00 0.40 0.40 95 1010.0
20260509170029 56 306 1.0 9.0 0.00 0.40 0.40 96 1010.2
20260509165528 56 323 4.0 4.0 0.00 0.40 0.40 96 1010.3
20260509165023 55 259 4.0 6.0 0.00 0.40 0.40 96 1010.0
20260509164520 55 296 4.0 8.0 0.00 0.40 0.40 96 1009.8
20260509164015 55 215 5.0 7.0 0.00 0.40 0.40 96 1009.7
20260509163513 55 222 4.0 7.0 0.00 0.40 0.40 96 1010.0
20260509163008 55 269 5.0 7.0 0.00 0.40 0.40 96 1009.8
20260509162506 55 281 3.0 6.0 0.00 0.40 0.40 96 1009.9
20260509162001 55 335 4.0 6.0 0.00 0.40 0.40 97 1010.0
20260509161458 55 285 4.0 7.0 0.00 0.40 0.40 97 1009.9
20260509160953 55 265 10.0 13.0 0.00 0.40 0.40 98 1009.8
20260509160449 55 328 3.0 9.0 0.00 0.40 0.40 99 1009.8
20260509155944 55 316 4.0 7.0 0.00 0.40 0.40 99 1009.9
20260509155441 54 325 2.0 7.0 0.00 0.40 0.40 99 1009.6
20260509154938 54 249 4.0 8.0 0.00 0.40 0.40 99 1009.6
20260509154434 54 308 3.0 9.0 0.00 0.40 0.40 99 1009.8
20260509153931 53 318 3.0 4.0 0.00 0.40 0.40 99 1009.6
20260509153428 53 266 5.0 8.0 0.00 0.40 0.40 99 1009.6
20260509152925 53 237 6.0 8.0 0.00 0.40 0.40 99 1009.7
20260509152421 53 281 6.0 9.0 0.00 0.40 0.40 99 1009.8
20260509151918 53 271 5.0 7.0 0.00 0.40 0.40 99 1009.8
20260509151414 53 179 6.0 9.0 0.00 0.40 0.40 99 1009.7
20260509150912 53 281 4.0 7.0 0.00 0.40 0.40 99 1009.6
20260509150410 52 261 4.0 6.0 0.00 0.40 0.40 99 1009.5
20260509145908 52 236 4.0 6.0 0.00 0.40 0.40 99 1009.8
20260509145407 52 252 5.0 6.0 0.00 0.40 0.40 99 1009.7
20260509144903 52 234 9.0 11.0 0.00 0.40 0.40 99 1009.7
20260509144400 52 264 2.0 8.0 0.00 0.40 0.40 99 1009.9
20260509143857 52 275 4.0 6.0 0.00 0.40 0.40 99 1009.4
20260509143355 52 285 7.0 9.0 0.00 0.40 0.40 99 1009.8
20260509142851 52 217 9.0 11.0 0.00 0.40 0.40 99 1009.8
20260509142348 51 337 3.0 4.0 0.00 0.40 0.40 99 1009.7
20260509141843 51 221 7.0 8.0 0.00 0.40 0.40 99 1009.8
20260509141341 51 295 4.0 8.0 0.00 0.40 0.40 99 1009.8
20260509140837 51 314 3.0 8.0 0.00 0.40 0.40 99 1009.8
20260509140334 51 347 3.0 9.0 0.00 0.40 0.40 99 1009.9
20260509135832 51 283 5.0 8.0 0.00 0.40 0.40 99 1010.0
20260509135329 51 212 6.0 10.0 0.00 0.40 0.40 99 1010.0
20260509134826 51 274 4.0 8.0 0.00 0.40 0.40 99 1009.8
20260509134323 51 289 4.0 8.0 0.00 0.40 0.40 99 1009.9
20260509133820 51 285 4.0 7.0 0.00 0.40 0.40 99 1009.9
20260509133317 51 259 2.0 13.0 0.00 0.40 0.40 99 1009.8
20260509132816 51 290 6.0 8.0 0.00 0.40 0.40 99 1010.0
20260509132314 51 333 2.0 6.0 0.00 0.40 0.40 99 1010.2
20260509131810 50 296 6.0 7.0 0.00 0.40 0.40 99 1009.9
20260509131307 50 312 3.0 6.0 0.00 0.40 0.40 99 1009.8
20260509130803 50 256 6.0 11.0 0.00 0.40 0.40 99 1009.7
20260509130259 50 246 4.0 9.0 0.00 0.40 0.40 99 1009.7
20260509125756 50 332 5.0 9.0 0.00 0.40 0.40 99 1009.9
20260509125253 50 282 5.0 9.0 0.00 0.40 0.40 99 1010.0
20260509124749 50 342 3.0 4.0 0.00 0.40 0.40 99 1009.8
20260509124245 50 323 4.0 6.0 0.00 0.40 0.40 99 1009.9
20260509123744 50 353 4.0 6.0 0.00 0.40 0.40 99 1009.8
20260509123241 50 292 4.0 7.0 0.00 0.40 0.40 99 1010.0
20260509122736 50 233 5.0 8.0 0.00 0.40 0.40 99 1010.0
20260509122233 50 243 4.0 6.0 0.00 0.40 0.40 99 1010.0
20260509121730 49 267 4.0 8.0 0.00 0.40 0.40 99 1010.0
20260509121228 49 355 1.0 7.0 0.00 0.40 0.40 99 1010.0
20260509120726 49 338 3.0 4.0 0.00 0.40 0.40 99 1010.2
20260509120223 49 341 2.0 6.0 0.00 0.40 0.40 99 1010.3
20260509115721 49 336 2.0 6.0 0.00 0.40 0.40 99 1010.2
20260509115218 49 300 2.0 4.0 0.00 0.40 0.40 99 1009.9
20260509114716 49 250 6.0 7.0 0.00 0.40 0.40 99 1009.9
20260509114215 49 338 2.0 6.0 0.07 0.40 0.40 99 1010.3
20260509113713 49 260 4.0 6.0 0.07 0.40 0.40 99 1010.0
20260509113210 49 224 4.0 8.0 0.00 0.39 0.39 99 1009.8
20260509112706 49 295 2.0 4.0 0.00 0.39 0.39 99 1010.2
20260509112203 49 269 4.0 6.0 0.07 0.39 0.39 99 1010.2
20260509111700 49 245 4.0 4.0 0.07 0.39 0.39 99 1010.2
20260509111157 49 313 4.0 7.0 0.00 0.38 0.38 99 1010.2
20260509110655 49 188 6.0 7.0 0.00 0.38 0.38 99 1010.0
20260509110151 49 356 2.0 3.0 0.05 0.38 0.38 99 1010.0
20260509105649 49 223 3.0 4.0 0.05 0.38 0.38 99 1009.9
20260509105147 49 306 1.0 3.0 0.00 0.37 0.37 99 1010.0
20260509104643 49 6 0.0 2.0 0.00 0.37 0.37 99 1009.9
20260509104140 49 356 0.0 0.0 0.00 0.37 0.37 99 1009.9
20260509103638 49 359 0.0 0.0 0.00 0.37 0.37 99 1009.9
20260509103136 49 336 0.0 0.0 0.00 0.37 0.37 99 1009.9
20260509102633 49 0 0.0 1.0 0.00 0.37 0.37 99 1009.8
20260509102130 49 356 0.0 1.0 0.00 0.37 0.37 99 1009.9
20260509101627 48 262 2.0 4.0 0.00 0.37 0.37 99 1009.9
20260509101123 49 338 2.0 3.0 0.07 0.37 0.37 99 1010.0
20260509100621 48 313 2.0 3.0 0.05 0.36 0.36 99 1010.0
20260509100118 49 327 3.0 6.0 0.12 0.36 0.36 99 1010.2
20260509095614 49 338 1.0 2.0 0.12 0.35 0.35 99 1010.0
20260509095112 49 286 2.0 2.0 0.12 0.34 0.34 99 1010.2
20260509094607 48 341 0.0 0.0 0.12 0.33 0.33 99 1010.3
20260509094105 48 4 0.0 1.0 0.05 0.32 0.32 99 1010.4
20260509093603 48 339 1.0 2.0 0.12 0.31 0.31 99 1010.4
20260509093100 48 337 1.0 1.0 0.12 0.30 0.30 99 1010.5
20260509092558 48 340 0.0 1.0 0.12 0.29 0.29 99 1010.5
20260509092057 48 350 0.0 0.0 0.07 0.27 0.27 99 1010.5
20260509091554 48 12 0.0 0.0 0.14 0.27 0.27 99 1010.5
20260509091050 48 11 0.0 0.0 0.07 0.26 0.26 99 1010.5
20260509090548 48 1 0.0 0.0 0.00 0.25 0.25 99 1010.6
20260509090045 48 14 0.0 0.0 0.05 0.25 0.25 99 1010.6
20260509085542 48 4 0.0 0.0 0.05 0.25 0.25 99 1010.7
20260509085038 48 1 0.0 1.0 0.07 0.24 0.24 99 1010.8
20260509084536 48 2 0.0 0.0 0.19 0.24 0.24 99 1010.9
20260509084032 48 359 0.0 0.0 0.17 0.23 0.23 99 1011.1
20260509083530 48 1 0.0 0.0 0.17 0.21 0.21 99 1010.9
20260509083026 48 355 0.0 1.0 0.17 0.19 0.19 99 1011.0
20260509082524 48 347 1.0 2.0 0.05 0.17 0.17 99 1011.2
20260509082021 48 314 3.0 4.0 0.07 0.16 0.16 99 1011.0
20260509081518 47 1 0.0 0.0 0.07 0.16 0.16 99 1011.0
20260509081015 47 2 0.0 2.0 0.12 0.15 0.15 99 1010.9
20260509080513 47 9 0.0 1.0 0.14 0.14 0.14 99 1010.8
20260509080011 47 359 0.0 0.0 0.19 0.13 0.13 99 1011.0
20260509075508 47 354 0.0 1.0 0.19 0.11 0.11 99 1010.8
20260509075006 47 355 0.0 1.0 0.17 0.10 0.10 99 1011.0
20260509074503 47 354 0.0 0.0 0.12 0.08 0.08 99 1010.7
20260509073959 47 356 0.0 0.0 0.12 0.07 0.07 99 1010.8
20260509073455 47 11 0.0 1.0 0.12 0.06 0.06 99 1010.9
20260509072951 47 6 0.0 0.0 0.07 0.05 0.05 99 1010.7
20260509072449 47 8 0.0 0.0 0.05 0.04 0.04 99 1010.8
20260509071945 47 4 0.0 2.0 0.05 0.04 0.04 99 1010.8
20260509071442 47 7 0.0 0.0 0.00 0.03 0.03 99 1010.8
20260509070940 47 23 0.0 0.0 0.00 0.03 0.03 99 1010.8
20260509070437 47 6 0.0 0.0 0.00 0.03 0.03 99 1010.8
20260509065932 47 7 0.0 0.0 0.00 0.03 0.03 99 1010.9
20260509065428 47 27 0.0 2.0 0.00 0.03 0.03 99 1010.9
20260509064924 47 13 0.0 0.0 0.00 0.03 0.03 99 1010.9
20260509064422 47 8 0.0 0.0 0.00 0.03 0.03 99 1010.8
20260509063920 47 10 0.0 1.0 0.00 0.03 0.03 99 1010.9
20260509063416 47 30 0.0 2.0 0.00 0.03 0.03 99 1011.0
20260509062913 47 22 0.0 0.0 0.00 0.03 0.03 99 1010.7
20260509062410 48 18 0.0 1.0 0.00 0.03 0.03 99 1011.0
20260509061907 48 15 0.0 1.0 0.00 0.03 0.03 99 1011.1
20260509061405 48 6 0.0 0.0 0.00 0.03 0.03 99 1011.2
20260509060902 48 34 0.0 0.0 0.00 0.03 0.03 99 1011.3
20260509060359 48 12 0.0 0.0 0.00 0.03 0.03 99 1011.4
20260509055854 48 5 0.0 0.0 0.00 0.03 0.03 99 1011.6
20260509055350 48 17 0.0 1.0 0.00 0.03 0.03 99 1011.7
20260509054847 48 7 0.0 0.0 0.00 0.03 0.03 99 1011.5
20260509054343 48 15 0.0 0.0 0.00 0.03 0.03 99 1011.6
20260509053842 48 13 0.0 0.0 0.00 0.03 0.03 99 1011.9
20260509053339 48 23 0.0 0.0 0.00 0.03 0.03 99 1011.7
20260509052837 48 17 0.0 0.0 0.00 0.03 0.03 99 1011.9
20260509052334 48 30 0.0 0.0 0.07 0.03 0.03 99 1011.9
20260509051832 48 10 0.0 0.0 0.07 0.03 0.03 99 1012.0
20260509051330 48 6 0.0 0.0 0.00 0.02 0.02 99 1012.0
20260509050826 48 10 0.0 0.0 0.00 0.02 0.02 99 1012.0
20260509050323 48 19 0.0 0.0 0.00 0.02 0.02 99 1012.0
20260509045820 48 25 0.0 0.0 0.00 0.02 0.02 99 1012.0
20260509045317 48 8 0.0 0.0 0.00 0.02 0.02 99 1012.1
20260509044814 48 12 0.0 0.0 0.00 0.02 0.02 99 1012.2
20260509044312 48 45 0.0 0.0 0.00 0.02 0.02 99 1012.2
20260509043808 48 42 0.0 2.0 0.00 0.02 0.02 99 1012.3
20260509043304 48 17 0.0 0.0 0.07 0.02 0.02 99 1012.4
20260509042800 48 21 0.0 1.0 0.07 0.02 0.02 99 1012.5
20260509042256 48 27 0.0 1.0 0.05 0.01 0.01 99 1012.8
20260509041753 48 14 0.0 0.0 0.00 0.00 0.00 99 1012.7
20260509041250 48 16 0.0 0.0 0.00 0.00 0.00 99 1012.7
20260509040749 48 45 0.0 0.0 0.00 0.00 0.00 99 1012.8
20260509040245 48 7 0.0 0.0 0.00 0.00 0.00 99 1013.2
20260509035742 48 12 0.0 0.0 0.00 0.11 0.11 99 1013.0
20260509035239 48 15 0.0 0.0 0.00 0.11 0.11 99 1013.0
20260509034736 48 0 0.0 0.0 0.00 0.11 0.11 99 1013.2
20260509034234 48 339 0.0 0.0 0.07 0.11 0.11 99 1013.2
20260509033730 48 13 0.0 0.0 0.07 0.11 0.11 99 1013.0
20260509033227 48 7 0.0 0.0 0.00 0.10 0.10 99 1013.3
20260509032725 48 14 0.0 0.0 0.00 0.10 0.10 99 1013.2
20260509032221 48 10 0.0 0.0 0.05 0.10 0.10 99 1013.4
20260509031719 48 9 0.0 1.0 0.00 0.09 0.09 99 1013.3
20260509031216 48 358 0.0 0.0 0.07 0.09 0.09 99 1013.2
20260509030714 48 3 0.0 0.0 0.07 0.09 0.09 99 1013.6
20260509030211 48 4 0.0 0.0 0.00 0.08 0.08 99 1013.4
20260509025708 48 6 0.0 0.0 0.00 0.08 0.08 99 1013.4
20260509025204 48 357 0.0 0.0 0.05 0.08 0.08 99 1013.5
20260509024659 49 7 0.0 0.0 0.05 0.08 0.08 99 1013.4
20260509024155 49 20 0.0 0.0 0.00 0.07 0.07 99 1013.6
20260509023653 49 3 0.0 0.0 0.07 0.07 0.07 99 1013.8
20260509023150 49 352 0.0 0.0 0.07 0.07 0.07 99 1013.9
20260509022646 49 1 0.0 0.0 0.00 0.06 0.06 99 1013.8
20260509022144 49 6 0.0 0.0 0.00 0.06 0.06 99 1013.8
20260509021640 49 1 0.0 0.0 0.05 0.06 0.06 99 1014.0
20260509021138 49 355 0.0 0.0 0.05 0.06 0.06 99 1014.0
20260509020636 49 354 0.0 0.0 0.00 0.05 0.05 99 1013.8
20260509020133 49 359 0.0 0.0 0.07 0.05 0.05 99 1014.1
20260509015631 49 359 0.0 0.0 0.00 0.04 0.04 99 1013.8
20260509015128 49 359 0.0 0.0 0.00 0.04 0.04 99 1014.0
20260509014625 49 356 0.0 0.0 0.00 0.04 0.04 99 1013.5
20260509014121 49 358 0.0 0.0 0.00 0.04 0.04 99 1013.5
20260509013618 49 358 0.0 0.0 0.00 0.04 0.04 99 1013.3
20260509013114 49 359 0.0 0.0 0.05 0.04 0.04 99 1013.2
20260509012611 49 346 0.0 0.0 0.00 0.03 0.03 99 1012.8
20260509012107 49 8 0.0 0.0 0.00 0.03 0.03 99 1012.8
20260509011606 49 6 0.0 0.0 0.00 0.03 0.03 99 1012.8
20260509011102 49 7 0.0 0.0 0.00 0.03 0.03 99 1012.5
20260509010601 49 6 0.0 0.0 0.07 0.03 0.03 99 1012.8
20260509010057 49 10 0.0 0.0 0.07 0.03 0.03 98 1012.6
20260509005555 49 12 0.0 0.0 0.00 0.02 0.02 98 1012.6
20260509005050 49 6 0.0 0.0 0.00 0.02 0.02 98 1012.5
20260509004547 49 5 0.0 0.0 0.00 0.02 0.02 98 1012.5
20260509004044 49 355 0.0 0.0 0.00 0.02 0.02 98 1012.5
20260509003542 50 321 0.0 0.0 0.00 0.02 0.02 98 1012.7
20260509003039 50 10 0.0 0.0 0.00 0.02 0.02 98 1012.4
20260509002536 50 311 0.0 0.0 0.00 0.02 0.02 97 1012.7
20260509002034 50 11 0.0 0.0 0.00 0.02 0.02 97 1012.3
20260509001531 50 0 0.0 0.0 0.00 0.02 0.02 97 1012.4
20260509001027 50 3 0.0 0.0 0.00 0.02 0.02 97 1012.4
20260509000525 50 359 0.0 0.0 0.00 0.02 0.02 96 1012.2
20260509000021 50 2 0.0 0.0 0.00 0.02 0.02 96 1012.5
20260508235519 50 7 0.0 0.0 0.00 0.02 0.02 96 1012.4
20260508235015 50 358 0.0 0.0 0.00 0.02 0.02 96 1012.6
20260508234513 50 358 0.0 0.0 0.00 0.02 0.02 96 1012.6
20260508234009 51 359 0.0 0.0 0.00 0.02 0.02 96 1012.2
20260508233509 51 358 0.0 0.0 0.00 0.02 0.02 96 1012.0
20260508233006 51 353 0.0 0.0 0.00 0.02 0.02 96 1012.1
20260508232503 50 5 0.0 0.0 0.00 0.02 0.02 96 1012.0
20260508231959 50 6 0.0 0.0 0.00 0.02 0.02 96 1012.1
20260508231456 50 7 0.0 0.0 0.00 0.02 0.02 95 1011.9
20260508230954 50 5 0.0 0.0 0.00 0.02 0.02 95 1012.2
20260508230450 50 6 0.0 0.0 0.00 0.02 0.02 95 1012.1
20260508225947 50 5 0.0 0.0 0.00 0.02 0.02 94 1012.2
20260508225444 50 358 0.0 0.0 0.00 0.02 0.02 94 1012.3
20260508224941 50 0 0.0 0.0 0.00 0.02 0.02 94 1012.6
20260508224439 50 359 0.0 0.0 0.00 0.02 0.02 93 1012.5